Location: Isola Pescaroli
(45.0500°N, 10.1667°E)
Time: 01:42:21
(UTC+00:00)

SL-4 R/B - Pass Details

Date: 22 June 2021
Orbit: 428 x 662 km, 51.6° (Epoch: 29 July)

Event Time Altitude Azimuth Distance (km) Brightness Sun altitude
Rises 23:19:44 0° 281° (W) 2,684 5.7 -21.5°
Reaches altitude 10° 23:22:14 10° 293° (WNW) 1,748 4.8 -21.5°
Maximum altitude 23:25:44 30° 355° (N) 913 3.8 -21.5°
Drops below altitude 10° 23:29:02 10° 58° (ENE) 1,634 4.8 -21.5°
Sets 23:31:17 0° 70° (ENE) 2,476 5.7 -21.5°
